Flag for Israel Weather past 2 weeks in Hadera, Israel

Now
57 °F

Passing clouds.


Feels Like: 57 °F
Forecast: 60 / 80 °F
Wind: 5 mph from East

Location: Dov Airport

Current Time: Apr 19, 2015 at 7:12:51 AM

Latest Report: Apr 19, 2015 at 5:50 AM


Visibility: 6 mi

Pressure: 30.07 "Hg

Humidity: 82%

Dew point: 52 °F

Location of HaderaLocation

Historic Weather in Hadera — Graph

°F

Hadera temperature yesterday

Maximum temperature yesterday: 68 °F (at 1:50 PM)
Minimum temperature yesterday: 57 °F (at 6:50 AM)
Average temperature yesterday: 65 °F

Past Weeks' High & Low Weather Summary

 TemperatureHumidityPressure
High86 °F (Apr 8, 5:50 PM)100% (Apr 7, 5:50 AM)30.24 "Hg (Apr 7, 5:50 AM)
Low50 °F (Apr 12, 9:50 AM)11% (Apr 7, 5:50 PM)29.59 "Hg (Apr 8, 10:50 PM)
Average64 °F69%29.98 "Hg
* Reported Apr 4 6:03 AM — Apr 18 10:50 PM, Hadera, Weather by CustomWeather, © 2015

Note: Actual official high and low records may vary slightly from our data, if they occured in-between our weather recording intervals... More about our weather records

Advertising

Hadera weather history for previous 24 hours

 ConditionsComfort  
Time TempWeatherWind HumidityBarometerVisibility
10:50 PM
Sat, Apr 18
63 °FClear.2 mph77%30.15 "Hg10 mi
9:50 PM63 °FClear.3 mph77%30.15 "Hg10 mi
8:50 PM63 °FClear.3 mph77%30.12 "Hg10 mi
7:50 PM64 °FSunny.6 mph73%30.12 "Hg10 mi
6:50 PM66 °FSunny.9 mph73%30.12 "Hg10 mi
5:50 PM66 °FSunny.9 mph73%30.12 "Hg10 mi
4:50 PM68 °FPassing clouds.10 mph69%30.12 "HgN/A
3:50 PM68 °FSunny.9 mph64%30.12 "Hg10 mi
2:50 PM68 °FPassing clouds.9 mph69%30.15 "HgN/A
1:50 PM68 °FPassing clouds.10 mph64%30.18 "HgN/A
12:50 PM66 °FPassing clouds.8 mph68%30.18 "HgN/A
11:50 AM66 °FPassing clouds.8 mph68%30.21 "HgN/A
10:50 AM66 °FPassing clouds.6 mph68%30.21 "HgN/A
9:50 AM63 °FScattered clouds.6 mph77%30.21 "HgN/A
8:50 AM64 °FScattered clouds.5 mph73%30.21 "HgN/A
7:50 AM61 °FPassing clouds.3 mph77%30.21 "HgN/A
Weather by CustomWeather, © 2015

See weather overviewHow to use our weather pages